Time,TemperatureF,DewpointF,PressureIn,WindDirection,WindDirectionDegrees,WindSpeedMPH,WindSpeedGustMPH,Humidity,HourlyPrecipIn,Conditions,Clouds,dailyrainin,SolarRadiationWatts/m^2,SoftwareType,DateUTC
2013-08-09 00:01:00,68.4,67.5,30.00,ESE,112,0.0,0.0,97,0.00,RA,,0.00,0.0,WeatherDisplay:10.37,2013-08-09 04:01:00,
2013-08-09 00:06:00,68.4,67.5,30.00,ESE,112,0.0,0.0,97,0.00,RA,,0.00,0.0,WeatherDisplay:10.37,2013-08-09 04:06:00,
2013-08-09 00:11:00,68.4,67.5,30.00,ESE,112,0.0,0.0,97,0.00,CLR,,0.00,0.0,WeatherDisplay:10.37,2013-08-09 04:11:00,
2013-08-09 00:16:00,68.4,67.5,30.00,ESE,112,0.0,0.0,97,0.00,CLR,,0.00,0.0,WeatherDisplay:10.37,2013-08-09 04:16:00,
2013-08-09 00:21:00,68.5,67.7,30.00,NNW,338,2.3,2.3,97,0.00,CLR,,0.00,0.0,WeatherDisplay:10.37,2013-08-09 04:21:00,
2013-08-09 00:26:00,68.5,67.7,30.00,NNW,338,1.2,0.0,97,0.00,CLR,,0.00,0.0,WeatherDisplay:10.37,2013-08-09 04:26:00,
2013-08-09 00:31:00,68.5,67.7,30.00,NNE,22,0.0,0.0,97,0.00,CLR,,0.00,0.0,WeatherDisplay:10.37,2013-08-09 04:31:00,
2013-08-09 00:36:00,68.4,67.5,30.00,NNE,22,0.0,0.0,97,0.00,CLR,,0.00,0.0,WeatherDisplay:10.37,2013-08-09 04:36:00,
2013-08-09 00:41:00,68.4,67.5,30.00,NNE,22,0.0,0.0,97,0.00,CLR,,0.00,0.0,WeatherDisplay:10.37,2013-08-09 04:41:00,
2013-08-09 00:46:00,68.4,67.5,30.00,NNE,22,0.0,0.0,97,0.00,CLR,,0.00,0.0,WeatherDisplay:10.37,2013-08-09 04:46:00,
2013-08-09 00:51:00,68.4,67.5,30.00,NNE,22,0.0,0.0,97,0.00,CLR,,0.00,0.0,WeatherDisplay:10.37,2013-08-09 04:51:00,
2013-08-09 00:56:00,68.4,67.5,30.00,NNE,22,0.0,0.0,97,0.00,CLR,,0.00,0.0,WeatherDisplay:10.37,2013-08-09 04:56:00,
2013-08-09 01:01:00,68.4,67.5,30.00,NNE,22,0.0,0.0,97,0.00,CLR,,0.00,0.0,WeatherDisplay:10.37,2013-08-09 05:01:00,
2013-08-09 01:06:00,68.4,67.5,30.00,NNE,22,0.0,0.0,97,0.00,CLR,,0.00,0.0,WeatherDisplay:10.37,2013-08-09 05:06:00,
2013-08-09 01:11:00,68.4,67.5,30.00,NNE,22,0.0,0.0,97,0.00,CLR,,0.00,0.0,WeatherDisplay:10.37,2013-08-09 05:11:00,
2013-08-09 01:16:00,68.4,67.5,30.00,ENE,68,0.0,0.0,97,0.00,CLR,,0.00,0.0,WeatherDisplay:10.37,2013-08-09 05:16:00,
2013-08-09 01:21:00,68.4,67.5,30.00,ENE,68,0.0,0.0,97,0.00,CLR,,0.00,0.0,WeatherDisplay:10.37,2013-08-09 05:21:00,
2013-08-09 01:26:00,68.4,67.5,30.00,ENE,68,0.0,0.0,97,0.00,CLR,,0.00,0.0,WeatherDisplay:10.37,2013-08-09 05:26:00,
2013-08-09 01:31:00,68.4,67.5,30.00,ENE,68,0.0,0.0,97,0.00,CLR,,0.00,0.0,WeatherDisplay:10.37,2013-08-09 05:31:00,
2013-08-09 01:36:00,68.4,67.5,30.00,NE,45,0.0,0.0,97,0.00,CLR,,0.00,0.0,WeatherDisplay:10.37,2013-08-09 05:36:00,
2013-08-09 01:41:00,68.4,67.5,30.00,ENE,68,0.0,0.0,97,0.00,CLR,,0.00,0.0,WeatherDisplay:10.37,2013-08-09 05:41:00,
2013-08-09 01:46:00,68.4,67.5,29.97,NE,45,0.0,0.0,97,0.00,CLR,,0.00,0.0,WeatherDisplay:10.37,2013-08-09 05:46:00,
2013-08-09 01:51:00,68.2,67.3,29.97,NNE,22,0.0,0.0,97,0.00,CLR,,0.00,0.0,WeatherDisplay:10.37,2013-08-09 05:51:00,
2013-08-09 01:56:00,68.2,67.3,29.97,NNE,22,0.0,0.0,97,0.00,CLR,,0.00,0.0,WeatherDisplay:10.37,2013-08-09 05:56:00,
2013-08-09 02:01:00,68.4,67.5,30.00,NNE,22,0.0,0.0,97,0.00,CLR,,0.00,0.0,WeatherDisplay:10.37,2013-08-09 06:01:00,
2013-08-09 02:06:00,68.2,67.3,30.00,NNW,338,1.4,0.0,97,0.00,CLR,,0.00,0.0,WeatherDisplay:10.37,2013-08-09 06:06:00,
2013-08-09 02:11:00,68.4,67.5,30.00,NNW,338,0.0,0.0,97,0.00,CLR,,0.00,0.0,WeatherDisplay:10.37,2013-08-09 06:11:00,
2013-08-09 02:16:00,68.4,67.5,29.97,NNW,338,0.0,0.0,97,0.00,CLR,,0.00,0.0,WeatherDisplay:10.37,2013-08-09 06:16:00,
2013-08-09 02:21:00,68.4,67.5,29.97,NNW,338,0.0,0.0,97,0.00,CLR,,0.00,0.0,WeatherDisplay:10.37,2013-08-09 06:21:00,
2013-08-09 02:26:00,68.4,67.5,29.97,NNW,338,0.0,0.0,97,0.00,CLR,,0.00,0.0,WeatherDisplay:10.37,2013-08-09 06:26:00,
2013-08-09 02:31:00,68.4,67.5,29.97,WSW,248,1.4,1.4,97,0.00,CLR,,0.00,0.0,WeatherDisplay:10.37,2013-08-09 06:31:00,
2013-08-09 02:36:00,68.5,67.7,29.97,WSW,248,2.3,2.3,97,0.00,CLR,,0.00,0.0,WeatherDisplay:10.37,2013-08-09 06:36:00,
2013-08-09 02:41:00,68.5,67.7,29.97,SSW,202,0.0,0.0,97,0.00,CLR,,0.00,0.0,WeatherDisplay:10.37,2013-08-09 06:41:00,
2013-08-09 02:46:00,68.7,67.8,29.97,South,180,0.0,0.0,97,0.00,CLR,,0.00,0.0,WeatherDisplay:10.37,2013-08-09 06:46:00,
2013-08-09 02:51:00,68.7,67.8,29.97,South,180,1.2,0.0,97,0.00,CLR,,0.00,0.0,WeatherDisplay:10.37,2013-08-09 06:51:00,
2013-08-09 02:56:00,68.7,67.8,29.97,South,180,0.0,0.0,97,0.00,CLR,,0.00,0.0,WeatherDisplay:10.37,2013-08-09 06:56:00,
2013-08-09 03:01:00,68.9,68.0,29.97,SSE,158,0.0,0.0,97,0.00,CLR,,0.00,0.0,WeatherDisplay:10.37,2013-08-09 07:01:00,
2013-08-09 03:06:00,68.9,68.0,29.97,SSE,158,0.0,0.0,97,0.00,CLR,,0.00,0.0,WeatherDisplay:10.37,2013-08-09 07:06:00,
2013-08-09 03:11:00,68.9,68.0,29.97,SSE,158,0.0,0.0,97,0.00,CLR,,0.00,0.0,WeatherDisplay:10.37,2013-08-09 07:11:00,
2013-08-09 03:16:00,68.9,68.0,29.97,SSE,158,0.0,0.0,97,0.00,CLR,,0.00,0.0,WeatherDisplay:10.37,2013-08-09 07:16:00,
2013-08-09 03:21:00,68.9,68.0,29.97,SSE,158,0.0,0.0,97,0.00,CLR,,0.00,0.0,WeatherDisplay:10.37,2013-08-09 07:21:00,
2013-08-09 03:27:00,68.9,68.0,29.97,ESE,112,1.2,1.4,97,0.00,CLR,,0.00,0.0,WeatherDisplay:10.37,2013-08-09 07:27:00,
2013-08-09 03:32:00,68.9,68.0,29.97,ESE,112,1.2,1.2,97,0.00,CLR,,0.00,0.0,WeatherDisplay:10.37,2013-08-09 07:32:00,
2013-08-09 03:37:00,68.9,68.0,29.97,ESE,112,1.2,0.0,97,0.00,CLR,,0.00,0.0,WeatherDisplay:10.37,2013-08-09 07:37:00,
2013-08-09 03:42:00,68.7,67.8,29.97,ENE,68,1.4,0.0,97,0.00,CLR,,0.00,0.0,WeatherDisplay:10.37,2013-08-09 07:42:00,
2013-08-09 03:47:00,68.7,67.8,29.97,ENE,68,0.0,0.0,97,0.00,CLR,,0.00,0.0,WeatherDisplay:10.37,2013-08-09 07:47:00,
2013-08-09 03:52:00,68.7,67.8,29.97,ENE,68,1.2,0.0,97,0.00,CLR,,0.00,0.0,WeatherDisplay:10.37,2013-08-09 07:52:00,
2013-08-09 03:57:00,68.7,67.8,29.97,ENE,68,0.0,0.0,97,0.00,CLR,,0.00,0.0,WeatherDisplay:10.37,2013-08-09 07:57:00,
2013-08-09 04:02:00,68.5,67.7,29.97,ENE,68,0.0,0.0,97,0.00,CLR,,0.00,0.0,WeatherDisplay:10.37,2013-08-09 08:02:00,
2013-08-09 04:07:00,68.5,67.7,29.97,SSE,158,0.0,0.0,97,0.00,CLR,,0.00,0.0,WeatherDisplay:10.37,2013-08-09 08:07:00,
2013-08-09 04:12:00,68.5,67.7,29.97,South,180,0.0,0.0,97,0.00,CLR,,0.00,0.0,WeatherDisplay:10.37,2013-08-09 08:12:00,
2013-08-09 04:17:00,68.5,67.7,29.97,South,180,0.0,0.0,97,0.00,CLR,,0.00,0.0,WeatherDisplay:10.37,2013-08-09 08:17:00,
2013-08-09 04:22:00,68.5,67.7,29.97,SSW,202,0.0,0.0,97,0.00,CLR,,0.00,0.0,WeatherDisplay:10.37,2013-08-09 08:22:00,
2013-08-09 04:27:00,68.5,67.7,29.97,SW,225,0.0,0.0,97,0.00,CLR,,0.00,0.0,WeatherDisplay:10.37,2013-08-09 08:27:00,
2013-08-09 04:32:00,68.5,67.7,29.97,NNW,338,2.4,2.9,97,0.00,CLR,,0.00,0.0,WeatherDisplay:10.37,2013-08-09 08:32:00,
2013-08-09 04:37:00,68.5,67.7,29.97,NNW,338,2.3,2.3,97,0.00,CLR,,0.00,0.0,WeatherDisplay:10.37,2013-08-09 08:37:00,
2013-08-09 04:42:00,68.5,67.7,29.97,WNW,292,1.2,1.2,97,0.00,CLR,,0.00,0.0,WeatherDisplay:10.37,2013-08-09 08:42:00,
2013-08-09 04:47:00,68.5,67.7,29.97,WNW,292,0.0,0.0,97,0.00,CLR,,0.00,0.0,WeatherDisplay:10.37,2013-08-09 08:47:00,
2013-08-09 04:52:00,68.5,67.7,29.97,ESE,112,0.0,0.0,97,0.00,CLR,,0.00,0.0,WeatherDisplay:10.37,2013-08-09 08:52:00,
2013-08-09 04:57:00,68.4,67.5,29.97,East,90,0.0,0.0,97,0.00,CLR,,0.00,0.0,WeatherDisplay:10.37,2013-08-09 08:57:00,
2013-08-09 05:02:00,68.4,67.5,29.97,ESE,112,2.3,2.3,97,0.00,CLR,,0.00,0.0,WeatherDisplay:10.37,2013-08-09 09:02:00,
2013-08-09 05:07:00,68.4,67.5,29.97,SE,135,0.0,0.0,97,0.00,CLR,,0.00,0.0,WeatherDisplay:10.37,2013-08-09 09:07:00,
2013-08-09 05:12:00,68.4,67.5,29.97,SE,135,0.0,0.0,97,0.00,CLR,,0.00,0.0,WeatherDisplay:10.37,2013-08-09 09:12:00,
2013-08-09 05:17:00,68.2,67.3,29.97,SSW,202,0.0,0.0,97,0.00,CLR,,0.00,0.0,WeatherDisplay:10.37,2013-08-09 09:17:00,
2013-08-09 05:22:00,68.2,67.3,29.97,WSW,248,1.2,1.2,97,0.00,CLR,,0.00,0.0,WeatherDisplay:10.37,2013-08-09 09:22:00,
2013-08-09 05:27:00,68.2,67.3,29.97,WNW,292,0.0,0.0,97,0.00,CLR,,0.00,0.0,WeatherDisplay:10.37,2013-08-09 09:27:00,
2013-08-09 05:32:00,68.4,67.5,29.97,WNW,292,2.3,2.3,97,0.00,CLR,,0.00,0.0,WeatherDisplay:10.37,2013-08-09 09:32:00,
2013-08-09 05:37:00,68.4,67.5,29.97,WSW,248,1.2,0.0,97,0.00,CLR,,0.00,0.0,WeatherDisplay:10.37,2013-08-09 09:37:00,
2013-08-09 05:42:00,68.5,67.7,29.97,WNW,292,1.2,1.2,97,0.00,CLR,,0.00,0.0,WeatherDisplay:10.37,2013-08-09 09:42:00,
2013-08-09 05:47:00,68.5,67.7,29.97,NW,315,2.3,2.3,97,0.00,CLR,,0.00,0.0,WeatherDisplay:10.37,2013-08-09 09:47:00,
2013-08-09 05:52:00,68.5,67.7,29.97,NNW,338,0.0,0.0,97,0.00,CLR,,0.00,0.0,WeatherDisplay:10.37,2013-08-09 09:52:00,
2013-08-09 05:57:00,68.5,67.7,29.97,WNW,292,1.2,1.2,97,0.00,CLR,,0.00,0.0,WeatherDisplay:10.37,2013-08-09 09:57:00,
2013-08-09 06:02:00,68.7,67.8,30.00,WSW,248,0.0,0.0,97,0.00,CLR,,0.00,0.0,WeatherDisplay:10.37,2013-08-09 10:02:00,
2013-08-09 06:07:00,68.7,67.8,30.00,WSW,248,0.0,0.0,97,0.00,CLR,,0.00,0.0,WeatherDisplay:10.37,2013-08-09 10:07:00,
2013-08-09 06:12:00,68.7,67.8,30.00,WSW,248,0.0,0.0,97,0.00,CLR,,0.00,0.0,WeatherDisplay:10.37,2013-08-09 10:12:00,
2013-08-09 06:17:00,68.7,67.8,29.97,WSW,248,0.0,0.0,97,0.00,CLR,,0.00,0.0,WeatherDisplay:10.37,2013-08-09 10:17:00,
2013-08-09 06:22:00,68.7,67.8,29.97,WSW,248,0.0,0.0,97,0.00,CLR,,0.00,0.0,WeatherDisplay:10.37,2013-08-09 10:22:00,
2013-08-09 06:27:00,68.9,68.0,29.97,SSE,158,0.0,0.0,97,0.00,CLR,,0.00,0.0,WeatherDisplay:10.37,2013-08-09 10:27:00,
2013-08-09 06:32:00,68.9,68.0,29.97,South,180,2.3,2.3,97,0.00,CLR,,0.00,0.0,WeatherDisplay:10.37,2013-08-09 10:32:00,
2013-08-09 06:37:00,68.9,68.0,29.97,SSE,158,0.0,0.0,97,0.00,CLR,,0.00,0.0,WeatherDisplay:10.37,2013-08-09 10:37:00,
2013-08-09 06:42:00,69.1,68.2,29.97,SSE,158,1.2,0.0,97,0.00,CLR,,0.00,0.0,WeatherDisplay:10.37,2013-08-09 10:42:00,
2013-08-09 06:47:00,69.1,68.2,30.00,West,270,1.2,0.0,97,0.00,CLR,,0.00,0.0,WeatherDisplay:10.37,2013-08-09 10:47:00,
2013-08-09 06:52:00,69.1,68.2,30.00,WSW,248,0.0,0.0,97,0.00,CLR,,0.00,0.0,WeatherDisplay:10.37,2013-08-09 10:52:00,
2013-08-09 06:57:00,69.3,68.4,30.00,NNW,338,1.2,0.0,97,0.00,CLR,,0.00,0.0,WeatherDisplay:10.37,2013-08-09 10:57:00,
2013-08-09 07:02:00,69.3,68.4,30.00,WNW,292,2.3,2.3,97,0.00,CLR,,0.00,0.0,WeatherDisplay:10.37,2013-08-09 11:02:00,
2013-08-09 07:07:00,69.3,68.4,30.00,South,180,0.0,0.0,97,0.00,CLR,,0.00,0.0,WeatherDisplay:10.37,2013-08-09 11:07:00,
2013-08-09 07:12:00,69.3,68.4,30.00,WSW,248,1.2,1.2,97,0.00,CLR,,0.00,0.0,WeatherDisplay:10.37,2013-08-09 11:12:00,
2013-08-09 07:17:00,69.4,68.6,30.00,WNW,292,2.3,2.3,97,0.00,CLR,,0.00,0.0,WeatherDisplay:10.37,2013-08-09 11:17:00,
2013-08-09 07:22:00,69.4,68.6,30.00,WNW,292,1.6,1.6,97,0.00,CLR,,0.00,0.0,WeatherDisplay:10.37,2013-08-09 11:22:00,
2013-08-09 07:27:00,69.4,68.6,30.00,NW,315,2.3,2.3,97,0.00,CLR,,0.00,0.0,WeatherDisplay:10.37,2013-08-09 11:27:00,
2013-08-09 07:32:00,69.4,68.6,30.00,NNW,338,1.2,1.2,97,0.00,CLR,,0.00,0.0,WeatherDisplay:10.37,2013-08-09 11:32:00,
2013-08-09 07:37:00,69.6,68.7,30.00,WNW,292,2.3,2.3,97,0.00,CLR,,0.00,0.0,WeatherDisplay:10.37,2013-08-09 11:37:00,
2013-08-09 07:42:00,69.6,68.7,30.00,WNW,292,2.4,2.4,97,0.00,CLR,,0.00,0.0,WeatherDisplay:10.37,2013-08-09 11:42:00,
2013-08-09 07:47:00,69.6,68.7,30.00,WSW,248,1.2,0.0,97,0.00,CLR,,0.00,0.0,WeatherDisplay:10.37,2013-08-09 11:47:00,
2013-08-09 07:52:00,69.8,68.9,30.00,WSW,248,2.3,2.3,97,0.00,CLR,,0.00,0.0,WeatherDisplay:10.37,2013-08-09 11:52:00,
2013-08-09 07:57:00,69.8,68.9,30.00,WNW,292,2.4,2.4,97,0.00,CLR,,0.00,0.0,WeatherDisplay:10.37,2013-08-09 11:57:00,
2013-08-09 08:03:00,70.0,69.1,30.00,SW,225,2.3,2.3,97,0.00,CLR,,0.00,0.0,WeatherDisplay:10.37,2013-08-09 12:03:00,
2013-08-09 08:08:00,70.0,69.1,30.00,WSW,248,2.3,2.3,97,0.00,CLR,,0.00,0.0,WeatherDisplay:10.37,2013-08-09 12:08:00,
2013-08-09 08:13:00,70.0,69.1,30.00,West,270,3.5,3.5,97,0.00,CLR,,0.00,0.0,WeatherDisplay:10.37,2013-08-09 12:13:00,
2013-08-09 08:18:00,70.0,69.1,30.00,SSW,202,3.6,3.6,97,0.00,CLR,,0.00,0.0,WeatherDisplay:10.37,2013-08-09 12:18:00,
2013-08-09 08:23:00,70.0,69.1,30.00,WSW,248,2.4,2.4,97,0.00,CLR,,0.00,0.0,WeatherDisplay:10.37,2013-08-09 12:23:00,
2013-08-09 08:28:00,70.0,69.1,30.00,SSW,202,2.3,2.3,97,0.00,CLR,,0.00,0.0,WeatherDisplay:10.37,2013-08-09 12:28:00,
2013-08-09 08:33:00,70.0,69.1,30.00,SSW,202,3.8,3.8,97,0.00,CLR,,0.00,0.0,WeatherDisplay:10.37,2013-08-09 12:33:00,
2013-08-09 08:38:00,70.0,69.1,30.00,SSE,158,1.4,0.0,97,0.00,CLR,,0.00,0.0,WeatherDisplay:10.37,2013-08-09 12:38:00,
2013-08-09 08:43:00,70.0,69.1,30.00,SSE,158,2.6,2.6,97,0.00,CLR,,0.00,0.0,WeatherDisplay:10.37,2013-08-09 12:43:00,
2013-08-09 08:48:00,70.2,69.3,30.00,WNW,292,2.9,2.9,97,0.00,CLR,,0.00,0.0,WeatherDisplay:10.37,2013-08-09 12:48:00,
2013-08-09 08:53:00,70.0,69.1,30.00,NNW,338,5.8,5.8,97,0.00,CLR,,0.00,0.0,WeatherDisplay:10.37,2013-08-09 12:53:00,
2013-08-09 08:58:00,70.0,69.1,30.00,WNW,292,3.5,3.8,97,0.00,CLR,,0.00,0.0,WeatherDisplay:10.37,2013-08-09 12:58:00,
2013-08-09 09:03:00,70.0,69.1,30.00,NNW,338,3.5,3.5,97,0.00,CLR,,0.00,0.0,WeatherDisplay:10.37,2013-08-09 13:03:00,
2013-08-09 09:08:00,70.0,69.1,30.00,NNW,338,3.5,3.5,97,0.00,CLR,,0.00,0.0,WeatherDisplay:10.37,2013-08-09 13:08:00,
2013-08-09 09:13:00,69.8,68.9,30.00,NNW,338,3.5,3.5,97,0.00,CLR,,0.00,0.0,WeatherDisplay:10.37,2013-08-09 13:13:00,
2013-08-09 09:18:00,69.8,68.9,30.00,NNW,338,4.7,4.7,97,0.00,CLR,,0.00,0.0,WeatherDisplay:10.37,2013-08-09 13:18:00,
2013-08-09 09:23:00,69.8,68.9,30.00,WNW,292,2.4,2.4,97,0.00,CLR,,0.00,0.0,WeatherDisplay:10.37,2013-08-09 13:23:00,
2013-08-09 09:28:00,69.8,68.9,30.00,WNW,292,1.4,1.4,97,0.00,CLR,,0.00,0.0,WeatherDisplay:10.37,2013-08-09 13:28:00,
2013-08-09 09:33:00,69.8,68.9,30.00,NNW,338,3.5,3.5,97,0.00,CLR,,0.00,0.0,WeatherDisplay:10.37,2013-08-09 13:33:00,
2013-08-09 09:38:00,69.8,68.9,30.00,WNW,292,3.5,3.5,97,0.00,CLR,,0.00,0.0,WeatherDisplay:10.37,2013-08-09 13:38:00,
2013-08-09 09:43:00,69.8,68.9,30.00,WNW,292,4.7,4.7,97,0.00,CLR,,0.00,0.0,WeatherDisplay:10.37,2013-08-09 13:43:00,
2013-08-09 09:48:00,69.8,68.9,30.00,WSW,248,4.6,4.6,97,0.00,CLR,,0.00,0.0,WeatherDisplay:10.37,2013-08-09 13:48:00,
2013-08-09 09:53:00,69.6,68.7,30.00,WNW,292,4.6,4.6,97,0.00,CLR,,0.00,0.0,WeatherDisplay:10.37,2013-08-09 13:53:00,
2013-08-09 09:58:00,69.8,68.9,30.03,WNW,292,5.8,5.8,97,0.00,CLR,,0.00,0.0,WeatherDisplay:10.37,2013-08-09 13:58:00,
2013-08-09 10:03:00,70.2,69.3,30.03,NW,315,5.8,5.8,97,0.00,CLR,,0.00,0.0,WeatherDisplay:10.37,2013-08-09 14:03:00,
2013-08-09 10:08:00,69.8,68.9,30.03,WNW,292,4.6,4.6,97,0.00,CLR,,0.00,0.0,WeatherDisplay:10.37,2013-08-09 14:08:00,
2013-08-09 10:13:00,69.8,68.9,30.00,WNW,292,4.6,4.6,97,0.00,CLR,,0.00,0.0,WeatherDisplay:10.37,2013-08-09 14:13:00,
2013-08-09 10:18:00,70.0,69.1,30.00,WNW,292,3.8,3.8,97,0.00,CLR,,0.00,0.0,WeatherDisplay:10.37,2013-08-09 14:18:00,
2013-08-09 10:23:00,69.6,68.7,30.00,NW,315,3.6,3.6,97,0.00,CLR,,0.00,0.0,WeatherDisplay:10.37,2013-08-09 14:23:00,
2013-08-09 10:28:00,69.4,68.6,30.03,WNW,292,5.8,5.8,97,0.00,CLR,,0.00,0.0,WeatherDisplay:10.37,2013-08-09 14:28:00,
2013-08-09 10:33:00,69.1,68.2,30.03,NNW,338,6.0,6.0,97,0.00,CLR,,0.00,0.0,WeatherDisplay:10.37,2013-08-09 14:33:00,
2013-08-09 10:38:00,68.5,67.7,30.03,NNW,338,8.1,8.1,97,0.00,CLR,,0.00,0.0,WeatherDisplay:10.37,2013-08-09 14:38:00,
2013-08-09 10:43:00,68.4,67.5,30.03,NNW,338,6.9,6.9,97,0.00,CLR,,0.00,0.0,WeatherDisplay:10.37,2013-08-09 14:43:00,
2013-08-09 10:48:00,68.2,67.3,30.03,NNW,338,6.2,6.2,97,0.00,CLR,,0.00,0.0,WeatherDisplay:10.37,2013-08-09 14:48:00,
2013-08-09 10:53:00,67.8,66.9,30.03,NNW,338,5.8,5.8,97,0.00,CLR,,0.00,0.0,WeatherDisplay:10.37,2013-08-09 14:53:00,
2013-08-09 10:58:00,67.1,66.2,30.03,NNW,338,10.4,10.4,97,0.00,CLR,,0.00,0.0,WeatherDisplay:10.37,2013-08-09 14:58:00,
2013-08-09 11:03:00,66.9,66.0,30.03,NNW,338,5.8,5.8,97,0.00,CLR,,0.00,0.0,WeatherDisplay:10.37,2013-08-09 15:03:00,
2013-08-09 11:08:00,66.7,65.9,30.03,NNE,22,5.8,5.8,97,0.00,CLR,,0.00,0.0,WeatherDisplay:10.37,2013-08-09 15:08:00,
2013-08-09 11:13:00,66.6,65.7,30.03,NNW,338,7.4,7.4,97,0.00,CLR,,0.00,0.0,WeatherDisplay:10.37,2013-08-09 15:13:00,
2013-08-09 11:18:00,66.6,65.7,30.03,NNW,338,4.6,4.6,97,0.66,RA,,0.66,0.0,WeatherDisplay:10.37,2013-08-09 15:18:00,
2013-08-09 11:23:00,66.6,65.7,30.03,ENE,68,2.2,2.2,97,0.66,RA,,0.66,0.0,WeatherDisplay:10.37,2013-08-09 15:23:00,
2013-08-09 11:28:00,66.4,65.5,30.03,ESE,112,2.3,2.3,97,0.66,,,0.66,0.0,WeatherDisplay:10.37,2013-08-09 15:28:00,
2013-08-09 11:33:00,66.4,65.5,30.03,NNW,338,4.6,4.6,97,0.66,CLR,,0.66,0.0,WeatherDisplay:10.37,2013-08-09 15:33:00,
2013-08-09 11:38:00,66.6,65.7,30.03,SSE,158,1.2,0.0,97,0.66,CLR,,0.66,0.0,WeatherDisplay:10.37,2013-08-09 15:38:00,
2013-08-09 11:43:00,66.6,65.7,30.03,NNW,338,3.5,3.5,97,0.66,CLR,,0.66,0.0,WeatherDisplay:10.37,2013-08-09 15:43:00,
2013-08-09 11:48:00,66.7,65.9,30.03,NNW,338,4.6,4.6,97,0.66,CLR,,0.66,0.0,WeatherDisplay:10.37,2013-08-09 15:48:00,
2013-08-09 11:53:00,67.1,66.2,30.03,NNE,22,2.3,2.3,97,0.66,CLR,,0.66,0.0,WeatherDisplay:10.37,2013-08-09 15:53:00,
2013-08-09 11:58:00,67.1,66.2,30.03,NNW,338,2.3,0.0,97,0.66,CLR,,0.66,0.0,WeatherDisplay:10.37,2013-08-09 15:58:00,
2013-08-09 12:03:00,67.3,66.4,30.03,North,0,4.0,4.0,97,0.66,CLR,,0.66,0.0,WeatherDisplay:10.37,2013-08-09 16:03:00,
2013-08-09 12:08:00,67.5,66.6,30.03,NW,315,2.3,0.0,97,0.66,CLR,,0.66,0.0,WeatherDisplay:10.37,2013-08-09 16:08:00,
2013-08-09 12:13:00,67.8,66.9,30.03,NNE,22,2.6,2.6,97,0.66,CLR,,0.66,0.0,WeatherDisplay:10.37,2013-08-09 16:13:00,
2013-08-09 12:18:00,68.2,67.3,30.03,East,90,2.3,2.6,97,0.00,CLR,,0.66,0.0,WeatherDisplay:10.37,2013-08-09 16:18:00,
2013-08-09 12:23:00,69.3,68.4,30.03,NNW,338,2.3,2.3,97,0.00,CLR,,0.66,0.0,WeatherDisplay:10.37,2013-08-09 16:23:00,
2013-08-09 12:28:00,69.6,68.4,30.03,NNW,338,4.6,4.6,96,0.00,CLR,,0.66,0.0,WeatherDisplay:10.37,2013-08-09 16:28:00,
2013-08-09 12:33:00,70.0,68.5,30.03,NNW,338,3.1,3.1,95,0.00,CLR,,0.66,0.0,WeatherDisplay:10.37,2013-08-09 16:33:00,
2013-08-09 12:38:00,70.7,69.2,30.03,ENE,68,1.2,1.2,95,0.00,CLR,,0.66,0.0,WeatherDisplay:10.37,2013-08-09 16:38:00,
2013-08-09 12:43:00,71.6,69.8,30.03,NNE,22,2.3,2.3,94,0.00,CLR,,0.66,0.0,WeatherDisplay:10.37,2013-08-09 16:43:00,
2013-08-09 12:48:00,72.5,70.7,30.03,ESE,112,2.3,2.3,94,0.00,CLR,,0.66,0.0,WeatherDisplay:10.37,2013-08-09 16:48:00,
2013-08-09 12:53:00,73.4,70.9,30.03,ENE,68,2.3,2.3,92,0.00,CLR,,0.66,0.0,WeatherDisplay:10.37,2013-08-09 16:53:00,
2013-08-09 12:58:00,75.2,72.1,30.03,NNE,22,2.3,2.3,90,0.00,CLR,,0.66,600.0,WeatherDisplay:10.37,2013-08-09 16:58:00,
2013-08-09 13:03:00,77.2,72.7,30.03,ENE,68,2.3,2.3,86,0.00,CLR,,0.66,0.0,WeatherDisplay:10.37,2013-08-09 17:03:00,
2013-08-09 13:08:00,78.1,73.2,30.03,NNE,22,2.3,2.3,85,0.00,CLR,,0.66,600.0,WeatherDisplay:10.37,2013-08-09 17:08:00,
2013-08-09 13:13:00,80.1,73.0,30.03,SSW,202,3.5,3.5,79,0.00,CLR,,0.66,1600.0,WeatherDisplay:10.37,2013-08-09 17:13:00,
2013-08-09 13:18:00,80.4,72.5,30.03,NNW,338,4.6,4.6,77,0.00,CLR,,0.66,1500.0,WeatherDisplay:10.37,2013-08-09 17:18:00,
2013-08-09 13:23:00,80.2,70.4,30.03,WNW,292,5.8,5.8,72,0.00,CLR,,0.66,300.0,WeatherDisplay:10.37,2013-08-09 17:23:00,
2013-08-09 13:28:00,81.1,69.1,30.03,NNE,22,4.6,4.6,67,0.00,CLR,,0.66,300.0,WeatherDisplay:10.37,2013-08-09 17:28:00,
2013-08-09 13:33:00,81.5,69.5,30.03,NNW,338,4.6,4.6,67,0.00,CLR,,0.66,500.0,WeatherDisplay:10.37,2013-08-09 17:33:00,
2013-08-09 13:38:00,80.8,67.5,30.03,NNW,338,5.8,5.8,64,0.00,CLR,,0.66,1600.0,WeatherDisplay:10.37,2013-08-09 17:38:00,
2013-08-09 13:43:00,81.7,68.3,30.03,NNW,338,3.5,3.5,64,0.00,CLR,,0.66,1400.0,WeatherDisplay:10.37,2013-08-09 17:43:00,
2013-08-09 13:48:00,79.7,66.4,30.03,NNW,338,5.8,5.8,64,0.00,CLR,,0.66,400.0,WeatherDisplay:10.37,2013-08-09 17:48:00,
2013-08-09 13:53:00,79.3,67.4,30.03,NNW,338,4.6,4.6,67,0.00,CLR,,0.66,0.0,WeatherDisplay:10.37,2013-08-09 17:53:00,
2013-08-09 13:59:00,79.2,68.1,30.06,ENE,68,2.3,2.3,69,0.00,CLR,,0.66,0.0,WeatherDisplay:10.37,2013-08-09 17:59:00,
2013-08-09 14:04:00,79.2,67.7,30.06,WNW,292,6.0,6.0,68,0.00,CLR,,0.66,1100.0,WeatherDisplay:10.37,2013-08-09 18:04:00,
2013-08-09 14:09:00,79.7,67.3,30.06,NNE,22,4.6,4.6,66,0.00,CLR,,0.66,900.0,WeatherDisplay:10.37,2013-08-09 18:09:00,
2013-08-09 14:14:00,80.2,68.3,30.03,NNW,338,4.6,4.6,67,0.00,CLR,,0.66,1600.0,WeatherDisplay:10.37,2013-08-09 18:14:00,
2013-08-09 14:19:00,82.2,70.2,30.03,NNW,338,4.6,4.6,67,0.00,CLR,,0.66,1000.0,WeatherDisplay:10.37,2013-08-09 18:19:00,
2013-08-09 14:24:00,81.7,68.3,30.03,WNW,292,5.9,5.9,64,0.00,CLR,,0.66,1000.0,WeatherDisplay:10.37,2013-08-09 18:24:00,
2013-08-09 14:29:00,82.2,69.3,30.03,NNW,338,4.6,4.6,65,0.00,CLR,,0.66,1000.0,WeatherDisplay:10.37,2013-08-09 18:29:00,
2013-08-09 14:34:00,83.1,67.3,30.03,NW,315,4.6,4.6,59,0.00,CLR,,0.66,1000.0,WeatherDisplay:10.37,2013-08-09 18:34:00,
2013-08-09 14:39:00,85.3,69.3,30.03,WNW,292,3.5,0.0,59,0.00,CLR,,0.66,1000.0,WeatherDisplay:10.37,2013-08-09 18:39:00,
2013-08-09 14:44:00,85.8,68.8,30.03,ENE,68,2.3,2.3,57,0.00,CLR,,0.66,1000.0,WeatherDisplay:10.37,2013-08-09 18:44:00,
2013-08-09 14:49:00,86.7,69.1,30.03,NNW,338,2.3,2.3,56,0.00,CLR,,0.66,1000.0,WeatherDisplay:10.37,2013-08-09 18:49:00,
2013-08-09 14:54:00,86.9,69.3,30.03,SSE,158,4.6,4.6,56,0.00,CLR,,0.66,1100.0,WeatherDisplay:10.37,2013-08-09 18:54:00,
2013-08-09 14:59:00,86.4,67.8,30.03,NNW,338,3.5,3.5,54,0.00,CLR,,0.66,1100.0,WeatherDisplay:10.37,2013-08-09 18:59:00,
2013-08-09 15:04:00,85.1,66.0,30.03,NNW,338,4.7,4.7,53,0.00,CLR,,0.66,1100.0,WeatherDisplay:10.37,2013-08-09 19:04:00,
2013-08-09 15:09:00,84.2,64.1,30.03,NNE,22,5.8,5.8,51,0.00,CLR,,0.66,1100.0,WeatherDisplay:10.37,2013-08-09 19:09:00,
2013-08-09 15:14:00,86.0,65.8,30.03,NNE,22,4.7,4.7,51,0.00,CLR,,0.66,1100.0,WeatherDisplay:10.37,2013-08-09 19:14:00,
2013-08-09 15:19:00,83.1,60.8,30.03,NNW,338,7.4,7.4,47,0.00,CLR,,0.66,1100.0,WeatherDisplay:10.37,2013-08-09 19:19:00,
2013-08-09 15:24:00,83.8,62.6,30.03,NW,315,3.5,3.6,49,0.00,CLR,,0.66,1100.0,WeatherDisplay:10.37,2013-08-09 19:24:00,
2013-08-09 15:29:00,83.7,64.2,30.06,NNW,338,7.8,7.8,52,0.00,CLR,,0.66,1100.0,WeatherDisplay:10.37,2013-08-09 19:29:00,
2013-08-09 15:34:00,82.4,61.3,30.06,NNW,338,8.1,8.1,49,0.00,CLR,,0.66,1100.0,WeatherDisplay:10.37,2013-08-09 19:34:00,
2013-08-09 15:39:00,82.8,63.9,30.06,NNW,338,8.1,8.1,53,0.00,CLR,,0.66,1100.0,WeatherDisplay:10.37,2013-08-09 19:39:00,
2013-08-09 15:44:00,82.0,62.7,30.03,WNW,292,8.1,8.1,52,0.00,CLR,,0.66,1100.0,WeatherDisplay:10.37,2013-08-09 19:44:00,
2013-08-09 15:49:00,83.1,64.2,30.03,WNW,292,5.8,5.8,53,0.00,CLR,,0.66,1100.0,WeatherDisplay:10.37,2013-08-09 19:49:00,
2013-08-09 15:54:00,83.5,64.5,30.03,NNW,338,8.1,8.1,53,0.00,CLR,,0.66,1100.0,WeatherDisplay:10.37,2013-08-09 19:54:00,
2013-08-09 15:59:00,84.4,66.4,30.06,NNE,22,3.5,3.5,55,0.00,CLR,,0.66,1100.0,WeatherDisplay:10.37,2013-08-09 19:59:00,
2013-08-09 16:04:00,83.1,64.2,30.06,NNW,338,8.1,8.1,53,0.00,CLR,,0.66,1000.0,WeatherDisplay:10.37,2013-08-09 20:04:00,
2013-08-09 16:09:00,83.3,64.4,30.06,NNW,338,6.9,6.9,53,0.00,CLR,,0.66,1000.0,WeatherDisplay:10.37,2013-08-09 20:09:00,
2013-08-09 16:14:00,82.4,63.0,30.03,NNW,338,8.1,8.1,52,0.00,CLR,,0.66,1100.0,WeatherDisplay:10.37,2013-08-09 20:14:00,
2013-08-09 16:19:00,83.3,63.8,30.03,NNE,22,4.6,4.6,52,0.00,CLR,,0.66,1500.0,WeatherDisplay:10.37,2013-08-09 20:19:00,
2013-08-09 16:24:00,84.4,60.7,30.03,WNW,292,6.0,6.0,45,0.00,CLR,,0.66,1400.0,WeatherDisplay:10.37,2013-08-09 20:24:00,
2013-08-09 16:29:00,84.7,61.0,30.03,NNW,338,5.8,5.8,45,0.00,CLR,,0.66,1400.0,WeatherDisplay:10.37,2013-08-09 20:29:00,
2013-08-09 16:34:00,84.0,60.4,30.03,NNW,338,8.1,8.1,45,0.00,CLR,,0.66,1300.0,WeatherDisplay:10.37,2013-08-09 20:34:00,
2013-08-09 16:39:00,83.1,60.2,30.03,NNW,338,6.9,6.9,46,0.00,CLR,,0.66,1200.0,WeatherDisplay:10.37,2013-08-09 20:39:00,
2013-08-09 16:44:00,83.5,60.5,30.03,NNW,338,5.8,5.8,46,0.00,CLR,,0.66,1200.0,WeatherDisplay:10.37,2013-08-09 20:44:00,
2013-08-09 16:49:00,84.9,62.4,30.03,WNW,292,9.2,9.2,47,0.00,CLR,,0.66,1200.0,WeatherDisplay:10.37,2013-08-09 20:49:00,
2013-08-09 16:54:00,82.8,58.6,30.03,NNW,338,6.4,6.4,44,0.00,CLR,,0.66,1200.0,WeatherDisplay:10.37,2013-08-09 20:54:00,
2013-08-09 16:59:00,82.9,59.4,30.06,NNW,338,6.0,6.0,45,0.00,CLR,,0.66,1000.0,WeatherDisplay:10.37,2013-08-09 20:59:00,
2013-08-09 17:04:00,83.7,60.7,30.06,NNE,22,4.6,4.6,46,0.00,CLR,,0.66,1100.0,WeatherDisplay:10.37,2013-08-09 21:04:00,
2013-08-09 17:09:00,84.0,60.4,30.06,NE,45,8.1,8.1,45,0.00,CLR,,0.66,1000.0,WeatherDisplay:10.37,2013-08-09 21:09:00,
2013-08-09 17:14:00,83.8,59.6,30.03,NNW,338,10.4,10.4,44,0.00,FEW,,0.66,800.0,WeatherDisplay:10.37,2013-08-09 21:14:00,
2013-08-09 17:19:00,82.8,59.3,30.03,NNW,338,7.4,7.4,45,0.00,FEW,,0.66,800.0,WeatherDisplay:10.37,2013-08-09 21:19:00,
2013-08-09 17:24:00,82.8,59.9,30.03,NNW,338,5.8,5.8,46,0.00,SCT,,0.66,400.0,WeatherDisplay:10.37,2013-08-09 21:24:00,
2013-08-09 17:29:00,82.6,59.7,30.03,NNW,338,4.9,4.9,46,0.00,BKN,,0.66,200.0,WeatherDisplay:10.37,2013-08-09 21:29:00,
2013-08-09 17:34:00,82.4,60.1,30.03,North,0,4.6,4.7,47,0.00,BKN,,0.66,400.0,WeatherDisplay:10.37,2013-08-09 21:34:00,
2013-08-09 17:39:00,83.7,60.7,30.03,NNW,338,5.6,5.6,46,0.00,BKN,,0.66,400.0,WeatherDisplay:10.37,2013-08-09 21:39:00,
2013-08-09 17:44:00,83.5,60.5,30.03,NNE,22,2.3,2.3,46,0.00,BKN,,0.66,200.0,WeatherDisplay:10.37,2013-08-09 21:44:00,
2013-08-09 17:49:00,83.5,60.5,30.03,NNW,338,4.6,4.6,46,0.00,CLR,,0.66,0.0,WeatherDisplay:10.37,2013-08-09 21:49:00,
2013-08-09 17:55:00,84.0,61.0,30.03,WNW,292,4.6,4.6,46,0.00,CLR,,0.66,0.0,WeatherDisplay:10.37,2013-08-09 21:55:00,
2013-08-09 18:00:00,84.0,61.0,30.03,NNW,327,5.0,6.0,46,0.00,CLR,,0.66,0.0,WeatherDisplay:10.37,2013-08-09 22:00:00,
2013-08-09 18:05:00,82.4,58.9,30.03,NNW,338,5.8,5.8,45,0.00,CLR,,0.66,0.0,WeatherDisplay:10.37,2013-08-09 22:05:00,
2013-08-09 18:10:00,82.6,59.7,30.03,WNW,292,5.8,5.8,46,0.00,CLR,,0.66,0.0,WeatherDisplay:10.37,2013-08-09 22:10:00,
2013-08-09 18:15:00,81.5,59.3,30.03,NNW,338,5.0,6.0,47,0.00,CLR,,0.66,0.0,WeatherDisplay:10.37,2013-08-09 22:15:00,
2013-08-09 18:20:00,80.8,58.7,30.03,WNW,292,4.6,4.6,47,0.00,CLR,,0.66,0.0,WeatherDisplay:10.37,2013-08-09 22:20:00,
2013-08-09 18:25:00,81.7,60.7,30.03,WNW,292,2.3,2.3,49,0.00,CLR,,0.66,0.0,WeatherDisplay:10.37,2013-08-09 22:25:00,
2013-08-09 18:30:00,82.6,61.5,30.03,NNE,22,3.3,3.3,49,0.00,CLR,,0.66,0.0,WeatherDisplay:10.37,2013-08-09 22:30:00,
2013-08-09 18:35:00,82.2,60.6,30.03,NNW,338,5.8,5.8,48,0.00,CLR,,0.66,0.0,WeatherDisplay:10.37,2013-08-09 22:35:00,
2013-08-09 18:40:00,82.2,61.2,30.03,NNW,338,4.6,4.6,49,0.00,CLR,,0.66,0.0,WeatherDisplay:10.37,2013-08-09 22:40:00,
2013-08-09 18:45:00,82.4,60.7,30.03,NNE,22,2.6,2.6,48,0.00,CLR,,0.66,0.0,WeatherDisplay:10.37,2013-08-09 22:45:00,
2013-08-09 18:50:00,82.8,61.1,30.03,NNW,338,2.3,2.3,48,0.00,CLR,,0.66,0.0,WeatherDisplay:10.37,2013-08-09 22:50:00,
2013-08-09 18:55:00,81.9,59.7,30.03,NNW,338,6.9,6.9,47,0.00,CLR,,0.66,0.0,WeatherDisplay:10.37,2013-08-09 22:55:00,
2013-08-09 19:00:00,81.5,59.9,30.03,NNW,338,3.8,3.8,48,0.00,CLR,,0.66,0.0,WeatherDisplay:10.37,2013-08-09 23:00:00,
2013-08-09 19:05:00,81.5,60.5,30.03,NNW,338,3.5,3.5,49,0.00,CLR,,0.66,0.0,WeatherDisplay:10.37,2013-08-09 23:05:00,
2013-08-09 19:10:00,81.3,60.9,30.03,NNW,338,3.5,3.5,50,0.00,CLR,,0.66,0.0,WeatherDisplay:10.37,2013-08-09 23:10:00,
2013-08-09 19:15:00,81.1,60.7,30.03,NNW,338,3.5,3.5,50,0.00,CLR,,0.66,0.0,WeatherDisplay:10.37,2013-08-09 23:15:00,
2013-08-09 19:20:00,81.3,61.5,30.03,WNW,292,3.5,3.5,51,0.00,CLR,,0.66,0.0,WeatherDisplay:10.37,2013-08-09 23:20:00,
2013-08-09 19:25:00,80.2,61.0,30.03,NNW,338,3.6,3.6,52,0.00,CLR,,0.66,0.0,WeatherDisplay:10.37,2013-08-09 23:25:00,
2013-08-09 19:30:00,79.7,61.6,30.03,NNE,22,4.6,4.6,54,0.00,CLR,,0.66,0.0,WeatherDisplay:10.37,2013-08-09 23:30:00,
2013-08-09 19:35:00,79.3,61.2,30.03,NNW,338,1.2,1.2,54,0.00,CLR,,0.66,0.0,WeatherDisplay:10.37,2013-08-09 23:35:00,
2013-08-09 19:40:00,79.0,61.9,30.03,NNW,338,1.2,1.2,56,0.00,CLR,,0.66,0.0,WeatherDisplay:10.37,2013-08-09 23:40:00,
2013-08-09 19:45:00,78.3,61.8,30.03,NNW,338,1.2,0.0,57,0.00,CLR,,0.66,0.0,WeatherDisplay:10.37,2013-08-09 23:45:00,
2013-08-09 19:50:00,77.7,62.2,30.03,North,0,2.3,2.3,59,0.00,CLR,,0.66,0.0,WeatherDisplay:10.37,2013-08-09 23:50:00,
2013-08-09 19:55:00,77.4,62.4,30.03,NNW,338,1.2,0.0,60,0.00,CLR,,0.66,0.0,WeatherDisplay:10.37,2013-08-09 23:55:00,
2013-08-09 20:00:00,76.6,62.6,30.06,NNE,22,1.2,0.0,62,0.00,CLR,,0.66,0.0,WeatherDisplay:10.37,2013-08-10 00:00:00,
2013-08-09 20:05:00,75.9,62.4,30.06,NNE,22,0.0,0.0,63,0.00,CLR,,0.66,0.0,WeatherDisplay:10.37,2013-08-10 00:05:00,
2013-08-09 20:10:00,74.8,61.8,30.06,NNW,338,1.2,1.4,64,0.00,CLR,,0.66,0.0,WeatherDisplay:10.37,2013-08-10 00:10:00,
2013-08-09 20:15:00,73.9,61.4,30.06,NE,45,1.2,0.0,65,0.00,CLR,,0.66,0.0,WeatherDisplay:10.37,2013-08-10 00:15:00,
2013-08-09 20:20:00,73.2,61.6,30.06,North,0,0.0,0.0,67,0.00,CLR,,0.66,0.0,WeatherDisplay:10.37,2013-08-10 00:20:00,
2013-08-09 20:25:00,72.7,61.5,30.06,NNE,22,0.0,0.0,68,0.00,CLR,,0.66,0.0,WeatherDisplay:10.37,2013-08-10 00:25:00,
2013-08-09 20:30:00,72.1,61.4,30.06,NNE,22,0.0,0.0,69,0.00,CLR,,0.66,0.0,WeatherDisplay:10.37,2013-08-10 00:30:00,
2013-08-09 20:35:00,71.2,61.4,30.06,NNE,22,0.0,0.0,71,0.00,CLR,,0.66,0.0,WeatherDisplay:10.37,2013-08-10 00:35:00,
2013-08-09 20:40:00,70.9,61.4,30.06,NNE,22,0.0,0.0,72,0.00,CLR,,0.66,0.0,WeatherDisplay:10.37,2013-08-10 00:40:00,
2013-08-09 20:45:00,70.3,61.7,30.06,NNE,22,0.0,0.0,74,0.00,CLR,,0.66,0.0,WeatherDisplay:10.37,2013-08-10 00:45:00,
2013-08-09 20:50:00,70.0,61.7,30.06,NNE,22,0.0,0.0,75,0.00,CLR,,0.66,0.0,WeatherDisplay:10.37,2013-08-10 00:50:00,
2013-08-09 20:55:00,69.6,62.5,30.06,ENE,68,0.0,0.0,78,0.00,CLR,,0.66,0.0,WeatherDisplay:10.37,2013-08-10 00:55:00,
2013-08-09 21:00:00,69.1,62.6,30.06,ENE,68,0.0,0.0,80,0.00,CLR,,0.66,0.0,WeatherDisplay:10.37,2013-08-10 01:00:00,
2013-08-09 21:05:00,68.9,62.5,30.06,ENE,68,0.0,0.0,80,0.00,CLR,,0.66,0.0,WeatherDisplay:10.37,2013-08-10 01:05:00,
2013-08-09 21:10:00,68.5,62.5,30.06,ENE,68,0.0,0.0,81,0.00,CLR,,0.66,0.0,WeatherDisplay:10.37,2013-08-10 01:10:00,
2013-08-09 21:15:00,68.2,62.5,30.06,ENE,68,0.0,0.0,82,0.00,CLR,,0.66,0.0,WeatherDisplay:10.37,2013-08-10 01:15:00,
2013-08-09 21:20:00,67.8,62.1,30.06,ENE,68,0.0,0.0,82,0.00,CLR,,0.66,0.0,WeatherDisplay:10.37,2013-08-10 01:20:00,
2013-08-09 21:25:00,67.6,62.3,30.06,ENE,68,0.0,0.0,83,0.00,CLR,,0.66,0.0,WeatherDisplay:10.37,2013-08-10 01:25:00,
2013-08-09 21:30:00,67.5,62.8,30.06,ESE,112,0.0,0.0,85,0.00,CLR,,0.66,0.0,WeatherDisplay:10.37,2013-08-10 01:30:00,
2013-08-09 21:35:00,67.1,62.4,30.06,ENE,68,0.0,0.0,85,0.00,CLR,,0.66,0.0,WeatherDisplay:10.37,2013-08-10 01:35:00,
2013-08-09 21:40:00,67.1,62.4,30.06,ENE,68,0.0,0.0,85,0.00,CLR,,0.66,0.0,WeatherDisplay:10.37,2013-08-10 01:40:00,
2013-08-09 21:45:00,67.1,62.8,30.09,ENE,68,0.0,0.0,86,0.00,CLR,,0.66,0.0,WeatherDisplay:10.37,2013-08-10 01:45:00,
2013-08-09 21:50:00,67.1,63.1,30.09,ENE,68,0.0,0.0,87,0.00,CLR,,0.66,0.0,WeatherDisplay:10.37,2013-08-10 01:50:00,
2013-08-09 21:55:00,66.9,62.9,30.09,ENE,68,0.0,0.0,87,0.00,CLR,,0.66,0.0,WeatherDisplay:10.37,2013-08-10 01:55:00,
2013-08-09 22:00:00,66.7,62.7,30.06,ENE,68,0.0,0.0,87,0.00,CLR,,0.66,0.0,WeatherDisplay:10.37,2013-08-10 02:00:00,
2013-08-09 22:05:00,66.7,62.7,30.06,ESE,112,0.0,0.0,87,0.00,CLR,,0.66,0.0,WeatherDisplay:10.37,2013-08-10 02:05:00,
2013-08-09 22:10:00,66.7,63.1,30.06,ESE,112,0.0,0.0,88,0.00,CLR,,0.66,0.0,WeatherDisplay:10.37,2013-08-10 02:10:00,
2013-08-09 22:15:00,66.6,62.9,30.06,ENE,68,0.0,0.0,88,0.00,CLR,,0.66,0.0,WeatherDisplay:10.37,2013-08-10 02:15:00,
2013-08-09 22:20:00,66.6,62.9,30.06,ENE,68,0.0,0.0,88,0.00,CLR,,0.66,0.0,WeatherDisplay:10.37,2013-08-10 02:20:00,
2013-08-09 22:25:00,66.6,62.9,30.06,ENE,68,0.0,0.0,88,0.00,CLR,,0.66,0.0,WeatherDisplay:10.37,2013-08-10 02:25:00,
2013-08-09 23:17:00,66.6,62.9,30.06,ENE,68,0.0,0.0,88,0.00,CLR,,0.66,0.0,WeatherDisplay:10.37,2013-08-10 03:17:00,
2013-08-09 23:22:00,66.6,62.9,30.06,ENE,68,0.0,0.0,88,0.00,CLR,,0.66,0.0,WeatherDisplay:10.37,2013-08-10 03:22:00,
2013-08-09 23:41:00,66.6,62.9,30.06,ENE,68,0.0,0.0,88,0.00,CLR,,0.66,0.0,WeatherDisplay:10.37,2013-08-10 03:41:00,